Location: Borz?cin
(51.1714°N, 19.6030°E)
Time: 08:46:07
(UTC+00:00)

Cosmos 2221 - Pass Details

Date: 19 May 2025
Orbit: 572 x 593 km, 82.5° (Epoch: 16 June)

Event Time Altitude Azimuth Distance (km) Brightness Sun altitude
Exits shadow 20:01:12 16° 147° (SSE) 1,549 3.9 -11.0°
Maximum altitude 20:03:57 32° 91° (E) 998 3.3 -11.2°
Drops below altitude 10° 20:07:41 10° 28° (NNE) 1,897 5.4 -11.6°
Sets 20:10:02 0° 18° (NNE) 2,798 6.5 -11.8°
